Radioactive Concentration measured by Seawater Radiation Monitor near Fukushima Daiichi Nuclear Power Station
Date,Time,Cs137(Bq/L),Cs134(Bq/L),Total β(Bq/L)
2016/10/23,00:00,1.1,0.15,ND
2016/10/23,00:10,1.1,0.12,ND
2016/10/23,00:20,1.1,0.14,ND
2016/10/23,00:30,1.1,0.15,ND
2016/10/23,00:40,1.1,0.15,ND
2016/10/23,00:50,1.1,0.16,9.6
2016/10/23,01:00,1.1,0.13,12
2016/10/23,01:10,1.1,0.14,15
2016/10/23,01:20,1.2,0.15,13
2016/10/23,01:30,1.2,0.16,13
2016/10/23,01:40,1.1,0.14,10
2016/10/23,01:50,1.1,0.14,ND
2016/10/23,02:00,1.1,0.14,ND
2016/10/23,02:10,1.1,0.15,ND
2016/10/23,02:20,1.1,0.13,ND
2016/10/23,02:30,1.1,0.12,ND
2016/10/23,02:40,1.1,0.12,ND
2016/10/23,02:50,1.1,0.12,ND
2016/10/23,03:00,1.1,0.12,ND
2016/10/23,03:10,1.1,0.12,ND
2016/10/23,03:20,1.1,0.12,ND
2016/10/23,03:30,1.1,0.12,ND
2016/10/23,03:40,1.1,0.12,ND
2016/10/23,03:50,1.1,0.12,ND
2016/10/23,04:00,1.1,0.12,ND
2016/10/23,04:10,1.0,0.12,ND
2016/10/23,04:20,1.0,0.13,ND
2016/10/23,04:30,1.0,0.12,ND
2016/10/23,04:40,0.97,0.12,ND
2016/10/23,04:50,0.96,0.12,ND
2016/10/23,05:00,0.97,0.12,ND
2016/10/23,05:10,0.99,0.11,ND
2016/10/23,05:20,0.98,0.10,ND
2016/10/23,05:30,0.97,0.10,ND
2016/10/23,05:40,0.96,0.10,ND
2016/10/23,05:50,0.96,0.10,ND
2016/10/23,06:00,0.96,0.10,ND
2016/10/23,06:10,0.94,0.11,ND
2016/10/23,06:20,0.94,0.11,ND
2016/10/23,06:30,0.93,0.11,ND
2016/10/23,06:40,0.90,0.11,ND
2016/10/23,06:50,0.86,0.12,ND
2016/10/23,07:00,0.84,0.11,ND
2016/10/23,07:10,0.84,0.11,ND
2016/10/23,07:20,0.83,0.10,ND
2016/10/23,07:30,0.82,0.094,ND
2016/10/23,07:40,0.83,0.094,ND
2016/10/23,07:50,0.84,0.076,ND
2016/10/23,08:00,0.82,0.082,ND
2016/10/23,08:10,0.82,0.078,ND
2016/10/23,08:20,0.82,0.082,ND
2016/10/23,08:30,0.83,0.082,ND
2016/10/23,08:40,0.83,0.086,ND
2016/10/23,08:50,0.86,0.093,ND
2016/10/23,09:00,0.87,0.10,ND
2016/10/23,09:10,0.89,0.10,ND
2016/10/23,09:20,0.89,0.10,ND
2016/10/23,09:30,0.91,0.099,ND
2016/10/23,09:40,0.93,0.095,ND
2016/10/23,09:50,0.94,0.092,ND
2016/10/23,10:00,0.99,0.089,ND
2016/10/23,10:10,0.98,0.093,ND
2016/10/23,10:20,1.0,0.085,ND
2016/10/23,10:30,1.0,0.083,ND
2016/10/23,10:40,0.97,0.091,ND
2016/10/23,10:50,0.94,0.092,ND
2016/10/23,11:00,0.89,0.090,ND
2016/10/23,11:10,0.92,0.097,ND
2016/10/23,11:20,0.91,0.11,ND
2016/10/23,11:30,0.87,0.12,ND
2016/10/23,11:40,0.89,0.12,ND
2016/10/23,11:50,0.92,0.11,ND
2016/10/23,12:00,0.88,0.14,ND
2016/10/23,12:10,0.87,0.097,ND
2016/10/23,12:20,0.86,0.096,ND
2016/10/23,12:30,0.84,0.096,ND
2016/10/23,12:40,0.84,0.096,ND
2016/10/23,12:50,0.82,0.11,ND
2016/10/23,13:00,0.81,0.12,ND
2016/10/23,13:10,0.83,0.11,ND
2016/10/23,13:20,0.82,0.11,ND
2016/10/23,13:30,0.84,0.11,ND
2016/10/23,13:40,0.84,0.10,ND
2016/10/23,13:50,0.84,0.10,ND
2016/10/23,14:00,0.83,0.095,ND
2016/10/23,14:10,0.79,0.097,ND
2016/10/23,14:20,0.76,0.10,ND
2016/10/23,14:30,0.74,0.10,ND
2016/10/23,14:40,0.72,0.11,ND
2016/10/23,14:50,0.72,0.10,ND
2016/10/23,15:00,0.71,0.097,ND
2016/10/23,15:10,0.72,0.091,ND
2016/10/23,15:20,0.75,0.076,ND
2016/10/23,15:30,0.76,0.085,ND
2016/10/23,15:40,0.71,0.074,ND
2016/10/23,15:50,0.74,0.080,ND
2016/10/23,16:00,0.71,0.070,ND
2016/10/23,16:10,0.70,0.074,ND
2016/10/23,16:20,0.69,0.070,ND
2016/10/23,16:30,0.72,0.069,ND
2016/10/23,16:40,0.72,0.066,ND
2016/10/23,16:50,0.73,0.069,ND
2016/10/23,17:00,0.74,0.082,ND
2016/10/23,17:10,0.76,0.079,ND
2016/10/23,17:20,0.73,0.093,ND
2016/10/23,17:30,0.74,0.091,ND
2016/10/23,17:40,0.75,0.082,ND
2016/10/23,17:50,0.77,0.072,ND
2016/10/23,18:00,0.74,0.10,ND
2016/10/23,18:10,0.75,0.064,ND
2016/10/23,18:20,0.77,0.058,ND
2016/10/23,18:30,0.77,0.048,ND
2016/10/23,18:40,0.78,0.045,ND
2016/10/23,18:50,0.77,0.056,ND
2016/10/23,19:00,0.82,0.061,ND
2016/10/23,19:10,0.77,0.070,ND
2016/10/23,19:20,0.76,0.085,ND
2016/10/23,19:30,0.76,0.091,ND
2016/10/23,19:40,0.73,0.11,ND
2016/10/23,19:50,0.71,0.11,ND
2016/10/23,20:00,0.68,0.11,ND
2016/10/23,20:10,0.67,0.10,ND
2016/10/23,20:20,0.67,0.098,ND
2016/10/23,20:30,0.67,0.10,ND
2016/10/23,20:40,0.71,0.096,ND
2016/10/23,20:50,0.71,0.099,ND
2016/10/23,21:00,0.75,0.088,ND
2016/10/23,21:10,0.78,0.076,ND
2016/10/23,21:20,0.79,0.083,ND
2016/10/23,21:30,0.81,0.085,9.7
2016/10/23,21:40,0.83,0.11,ND
2016/10/23,21:50,0.86,0.11,8.9
2016/10/23,22:00,0.84,0.096,ND
2016/10/23,22:10,0.82,0.098,ND
2016/10/23,22:20,0.84,0.081,ND
2016/10/23,22:30,0.84,0.079,ND
2016/10/23,22:40,0.85,0.077,ND
2016/10/23,22:50,0.84,0.085,ND
2016/10/23,23:00,0.85,0.087,ND
2016/10/23,23:10,0.83,0.098,ND
2016/10/23,23:20,0.82,0.11,ND
2016/10/23,23:30,0.81,0.11,ND
2016/10/23,23:40,0.79,0.11,ND
2016/10/23,23:50,0.81,0.10,ND
